Ahoskie, NC

1:30 PM EST on November 17, 2017 (GMT -0500)
Tri County

Weather History for KASJ - March, 2014

Change the Weather History Date:

Friday, March 14, 2014

  Actual Average (KEMV) Record (KEMV)
Temperature  
Mean Temperature 40 °F -  
Max Temperature 59 °F 58 °F 89 °F (1990)
Min Temperature 21 °F 33 °F 21 °F (2014)
Degree Days  
Heating Degree Days 25    
Moisture  
Dew Point 18 °F    
Average Humidity 47    
Maximum Humidity 87    
Minimum Humidity 18    
Precipitation  
Precipitation 0.00 in - - ()
Sea Level Pressure  
Sea Level Pressure 30.23 in    
Wind  
Wind Speed 3 mph (South)    
Max Wind Speed 12 mph    
Max Gust Speed 21 mph    
Visibility 10 miles    
Events      
Averages and records for this station are not official NWS values.
T = Trace of Precipitation, MM = Missing Value Source: NWS Daily Summary

Daily Weather History Graph

Daily Weather History Graph

Search for Another Location

Airport or City:

Trip Planner

Search our weather history database for the weather conditions in past years. The results will help you decide how hot, cold, wet, or windy it might be!

Date:

Astronomy

Mar. 14, 2014 Rise Set
Actual Time 7:20 AM EDT 7:15 PM EDT
Civil Twilight 6:55 AM EDT 7:40 PM EDT
Nautical Twilight 6:25 AM EDT 8:10 PM EDT
Astronomical Twilight 5:55 AM EDT 8:40 PM EDT
Moon 5:37 PM EDT (3/14) 5:57 AM EDT (3/14)
Length of Visible Light 12h 45m
Length of Day
11h 54m
Waxing Gibbous, 96% of the Moon is Illuminated
Mar 14
Waxing Gibbous
Mar 16
Full
Mar 23
Last Quarter
Mar 30
New
Apr 7
First Quarter

Hourly Weather History & Observations

Time (EDT) Temp. Windchill Dew Point Humidity Pressure Visibility Wind Dir Wind Speed Gust Speed Precip Events Conditions
12:10 AM 25.9 °F - 15.4 °F 65% 30.24 in 10.0 mi Calm Calm - N/A   Clear
12:30 AM 24.3 °F - 16.5 °F 72% 30.24 in 10.0 mi Calm Calm - N/A   Clear
12:50 AM 24.6 °F - 16.3 °F 71% 30.25 in 10.0 mi Calm Calm - N/A   Clear
1:10 AM 25.3 °F - 16.3 °F 69% 30.25 in 10.0 mi Calm Calm - N/A   Clear
1:30 AM 25.5 °F - 16.2 °F 68% 30.26 in 10.0 mi Calm Calm - N/A   Clear
1:50 AM 23.5 °F - 17.4 °F 77% 30.26 in 10.0 mi Calm Calm - N/A   Clear
2:10 AM 24.6 °F - 16.3 °F 71% 30.26 in 10.0 mi Calm Calm - N/A   Clear
2:30 AM 23.7 °F - 17.6 °F 77% 30.27 in 10.0 mi Calm Calm - N/A   Clear
2:50 AM 23.5 °F - 18.3 °F 80% 30.26 in 10.0 mi Calm Calm - N/A   Clear
3:10 AM 21.7 °F - 16.5 °F 80% 30.27 in 10.0 mi Calm Calm - N/A   Clear
3:30 AM 22.5 °F - 16.7 °F 79% 30.27 in 10.0 mi Calm Calm - N/A   Clear
3:50 AM 21.9 °F - 16.7 °F 80% 30.26 in 10.0 mi Calm Calm - N/A   Clear
4:10 AM 23.7 °F - 17.4 °F 77% 30.27 in 10.0 mi Calm Calm - N/A   Clear
4:30 AM 23.2 °F - 17.4 °F 79% 30.27 in 10.0 mi Calm Calm - N/A   Clear
4:50 AM 22.1 °F - 17.8 °F 83% 30.27 in 10.0 mi Calm Calm - N/A   Clear
5:10 AM 22.5 °F - 18.0 °F 83% 30.27 in 10.0 mi Calm Calm - N/A   Clear
5:30 AM 22.1 °F - 18.5 °F 86% 30.27 in 10.0 mi Calm Calm - N/A   Clear
5:50 AM 23.2 °F - 18.3 °F 82% 30.28 in 10.0 mi Calm Calm - N/A   Clear
6:10 AM 22.3 °F - 17.8 °F 83% 30.30 in 10.0 mi Calm Calm - N/A   Clear
6:30 AM 21.9 °F - 17.4 °F 83% 30.30 in 10.0 mi Calm Calm - N/A   Clear
6:50 AM 21.4 °F - 17.6 °F 85% 30.31 in 10.0 mi Calm Calm - N/A   Clear
7:10 AM 21.6 °F - 18.1 °F 87% 30.32 in 10.0 mi Calm Calm - N/A   Clear
7:30 AM 22.1 °F - 17.4 °F 82% 30.32 in 10.0 mi Calm Calm - N/A   Clear
7:50 AM 22.5 °F - 18.7 °F 85% 30.33 in 10.0 mi Calm Calm - N/A   Clear
8:10 AM 25.5 °F - 20.5 °F 81% 30.33 in 10.0 mi Calm Calm - N/A   Clear
8:30 AM 28.4 °F - 20.7 °F 73% 30.33 in 10.0 mi Calm Calm - N/A   Clear
8:50 AM 31.5 °F - 23.0 °F 71% 30.34 in 10.0 mi Calm Calm - N/A   Clear
9:10 AM 34.9 °F 32.0 °F 18.3 °F 51% 30.34 in 10.0 mi South 3.5 mph - N/A   Clear
9:30 AM 37.0 °F 33.3 °F 16.7 °F 44% 30.34 in 10.0 mi SSE 4.6 mph - N/A   Clear
9:50 AM 39.2 °F 34.2 °F 14.4 °F 36% 30.34 in 10.0 mi South 6.9 mph - N/A   Clear
10:10 AM 41.5 °F 37.1 °F 16.3 °F 36% 30.34 in 10.0 mi South 6.9 mph - N/A   Clear
10:30 AM 43.2 °F 40.5 °F 12.7 °F 29% 30.34 in 10.0 mi SW 4.6 mph - N/A   Clear
10:50 AM 44.6 °F 41.4 °F 14.5 °F 30% 30.33 in 10.0 mi South 5.8 mph - N/A   Clear
11:10 AM 45.5 °F 44.2 °F 15.3 °F 30% 30.33 in 10.0 mi South 3.5 mph - N/A   Clear
11:30 AM 46.4 °F 43.5 °F 12.9 °F 26% 30.33 in 10.0 mi South 5.8 mph - N/A   Clear
11:50 AM 48.0 °F - 14.2 °F 26% 30.32 in 10.0 mi South 4.6 mph - N/A   Clear
12:10 PM 49.6 °F - 14.5 °F 25% 30.32 in 10.0 mi South 3.5 mph - N/A   Clear
12:30 PM 50.7 °F - 13.1 °F 22% 30.31 in 10.0 mi SW 3.5 mph - N/A   Clear
12:50 PM 52.7 °F - 12.6 °F 20% 30.31 in 10.0 mi SW 5.8 mph - N/A   Clear
1:10 PM 53.4 °F - 12.2 °F 19% 30.30 in 10.0 mi SSW 8.1 mph - N/A   Clear
1:30 PM 53.6 °F - 12.6 °F 20% 30.28 in 10.0 mi SSW 5.8 mph 17.3 mph N/A   Clear
1:50 PM 54.3 °F - 15.3 °F 21% 30.26 in 10.0 mi South 11.5 mph 18.4 mph N/A   Clear
2:10 PM 55.8 °F - 15.6 °F 21% 30.25 in 10.0 mi South 11.5 mph 20.7 mph N/A   Clear
2:30 PM 56.3 °F - 13.5 °F 18% 30.24 in 10.0 mi SSW 8.1 mph 18.4 mph N/A   Clear
2:50 PM 57.6 °F - 15.1 °F 19% 30.22 in 10.0 mi South 9.2 mph - N/A   Clear
3:10 PM 57.7 °F - 15.6 °F 19% 30.22 in 10.0 mi SSW 10.4 mph - N/A   Clear
3:30 PM 58.3 °F - 16.2 °F 19% 30.20 in 10.0 mi SW 4.6 mph - N/A   Clear
3:50 PM 58.6 °F - 16.7 °F 19% 30.19 in 10.0 mi South 11.5 mph 18.4 mph N/A   Clear
4:10 PM 57.4 °F - 17.1 °F 21% 30.18 in 10.0 mi South 10.4 mph 17.3 mph N/A   Clear
4:30 PM 57.7 °F - 17.6 °F 21% 30.17 in 10.0 mi SSW 6.9 mph - N/A   Clear
4:50 PM 57.2 °F - 17.2 °F 21% 30.16 in 10.0 mi SSW 5.8 mph - N/A   Clear
5:10 PM 59.0 °F - 17.4 °F 20% 30.15 in 10.0 mi SSW 8.1 mph - N/A   Clear
5:30 PM 57.7 °F - 16.7 °F 20% 30.14 in 10.0 mi SSW 5.8 mph - N/A   Clear
5:50 PM 57.2 °F - 17.4 °F 21% 30.14 in 10.0 mi SSW 6.9 mph - N/A   Clear
6:10 PM 56.3 °F - 17.4 °F 22% 30.13 in 10.0 mi South 6.9 mph - N/A   Clear
6:30 PM 55.6 °F - 17.1 °F 22% 30.13 in 10.0 mi South 9.2 mph - N/A   Clear
6:50 PM 54.7 °F - 16.7 °F 22% 30.13 in 10.0 mi South 9.2 mph - N/A   Clear
7:10 PM 54.1 °F - 17.2 °F 23% 30.12 in 10.0 mi South 5.8 mph - N/A   Clear
7:30 PM 54.0 °F - 18.1 °F 25% 30.12 in 10.0 mi SSW 4.6 mph - N/A   Clear
7:50 PM 53.2 °F - 19.6 °F 27% 30.14 in 10.0 mi South 6.9 mph - N/A   Clear
8:10 PM 52.9 °F - 23.0 °F 31% 30.14 in 10.0 mi South 6.9 mph - N/A   Clear
8:30 PM 52.2 °F - 24.6 °F 34% 30.14 in 10.0 mi South 10.4 mph - N/A   Clear
8:50 PM 51.6 °F - 25.2 °F 36% 30.14 in 10.0 mi South 9.2 mph 19.6 mph N/A   Clear
9:10 PM 51.3 °F - 25.2 °F 36% 30.14 in 10.0 mi South 9.2 mph - N/A   Clear
9:30 PM 50.5 °F - 25.3 °F 38% 30.13 in 10.0 mi South 8.1 mph 17.3 mph N/A   Clear
9:50 PM 50.2 °F - 25.5 °F 38% 30.13 in 10.0 mi South 6.9 mph - N/A   Clear
10:10 PM 50.0 °F - 25.7 °F 39% 30.12 in 10.0 mi South 9.2 mph - N/A   Clear
10:30 PM 50.0 °F - 25.5 °F 39% 30.12 in 10.0 mi South 6.9 mph - N/A   Clear
10:50 PM 50.2 °F - 26.2 °F 39% 30.11 in 10.0 mi SSW 8.1 mph - N/A   Clear
11:10 PM 50.0 °F - 27.7 °F 42% 30.10 in 10.0 mi South 10.4 mph - N/A   Clear
11:30 PM 50.2 °F - 29.3 °F 45% 30.10 in 10.0 mi South 8.1 mph 17.3 mph N/A   Clear
11:50 PM 50.2 °F - 30.2 °F 46% 30.10 in 10.0 mi SSW 8.1 mph - N/A   Clear